Date String (YYYY-MM-DD hh:mm:ss) UTC,Instrument flags,absolute air pressure of the measurement (hPa),sample flow rate (lpm),inlet stack bypass flow (lpm),air temperature of the measurement (°C),ambient temperature measured by the external sensor (°C),aerosol sample conditioner tube jacket temperature (°C),OPC LED temperature (°C),internal box temperature (°C),relative humidity of the measurement (%),span deviation,mass concentration of particles derived from Lorenz-Mie calculation of OPC scattering (μg/m³),mass concentration of particles derived from Lorenz-Mie calculation of OPC scattering (μg/m³),mass concentration of particles derived from Lorenz-Mie calculation of OPC scattering (μg/m³)
DateTimeUTC,F1_M11,P_M11,Q1_M11,Q2_M11,T1_M11,T2_M11,T3_M11,T4_M11,T5_M11,U1_M11,ZSPAN_M11,X2_M11,X0_M11,X1_M11
2024-02-23 21:00:00,SystemResetWarning,0831.0,5.00,000.00,021.8,021.2,000.0,029.8,023.4,07.2,0000.0,0000.94,0002.29,0000.80
2024-02-23 21:01:00,SystemResetWarning,0830.9,5.00,000.00,021.8,021.2,000.0,029.8,023.5,07.0,0000.0,0000.95,0002.37,0000.80
2024-02-23 21:02:00,SystemResetWarning,0830.9,4.99,000.00,021.8,021.2,000.0,029.8,023.5,07.4,0000.0,0000.96,0002.43,0000.80
2024-02-23 21:03:00,SystemResetWarning,0830.9,5.01,000.00,021.8,021.3,000.0,029.9,023.5,07.3,0000.0,0000.96,0002.44,0000.81
2024-02-23 21:04:00,SystemResetWarning,0830.9,5.00,000.00,021.8,021.3,000.0,029.9,023.5,06.9,0000.0,0000.96,0002.42,0000.81
2024-02-23 21:05:00,SystemResetWarning,0830.9,5.01,000.00,021.8,021.3,000.0,029.9,023.5,07.1,0000.0,0000.97,0002.14,0000.81
2024-02-23 21:06:00,SystemResetWarning,0830.8,4.99,000.00,021.9,021.3,000.0,029.9,023.5,07.2,0000.0,0000.98,0001.47,0000.81
2024-02-23 21:07:00,SystemResetWarning,0830.9,4.99,000.00,021.9,021.3,000.0,029.9,023.5,07.3,0000.0,0000.98,0001.46,0000.81
2024-02-23 21:08:00,SystemResetWarning,0830.9,4.99,000.00,021.9,021.3,000.0,029.9,023.5,07.5,0000.0,0000.95,0001.37,0000.81
2024-02-23 21:09:00,SystemResetWarning,0830.9,5.01,000.00,021.9,021.3,000.0,029.9,023.5,07.5,0000.0,0000.94,0001.34,0000.81
2024-02-23 21:10:00,SystemResetWarning,0830.9,5.01,000.00,021.9,021.3,000.0,030.0,023.6,07.7,0000.0,0000.93,0001.30,0000.81
2024-02-23 21:11:00,SystemResetWarning,0830.9,4.99,000.00,021.9,021.3,000.0,030.0,023.6,07.6,0000.0,0000.89,0001.23,0000.81
2024-02-23 21:12:00,SystemResetWarning,0830.9,5.00,000.00,021.9,021.3,000.0,030.0,023.6,07.4,0000.0,0000.90,0001.21,0000.80
2024-02-23 21:13:00,SystemResetWarning,0830.9,4.99,000.00,021.9,021.4,000.0,030.0,023.6,07.4,0000.0,0000.89,0001.15,0000.79
2024-02-23 21:14:00,SystemResetWarning,0830.9,5.01,000.00,022.0,021.4,000.0,030.0,023.7,07.2,0000.0,0000.90,0001.17,0000.79
2024-02-23 21:15:00,SystemResetWarning,0830.9,5.01,000.00,022.0,021.4,000.0,030.0,023.7,07.3,0000.0,0000.89,0001.16,0000.77
2024-02-23 21:16:00,SystemResetWarning,0830.8,5.00,000.00,022.0,021.4,000.0,030.0,023.7,07.2,0000.0,0000.88,0001.10,0000.77
2024-02-23 21:17:00,SystemResetWarning,0830.8,5.00,000.00,022.0,021.4,000.0,030.0,023.7,07.1,0000.0,0000.85,0001.04,0000.77
2024-02-23 21:18:00,SystemResetWarning,0830.8,5.00,000.00,022.0,021.4,000.0,030.1,023.7,07.3,0000.0,0000.94,0001.69,0000.78
2024-02-23 21:19:00,SystemResetWarning,0830.8,4.99,000.00,022.0,021.4,000.0,030.1,023.7,07.1,0000.0,0001.00,0002.12,0000.79
2024-02-23 21:20:00,SystemResetWarning,0830.8,5.00,000.00,022.0,021.5,000.0,030.1,023.7,07.1,0000.0,0001.02,0002.14,0000.80
2024-02-23 21:21:00,SystemResetWarning,0830.9,5.01,000.00,022.0,021.5,000.0,030.1,023.7,07.0,0000.0,0001.01,0002.14,0000.79
2024-02-23 21:22:00,SystemResetWarning,0830.8,5.02,000.00,022.1,021.5,000.0,030.1,023.8,07.5,0000.0,0001.01,0002.14,0000.79
2024-02-23 21:23:00,SystemResetWarning,0830.8,5.00,000.00,022.1,021.5,000.0,030.1,023.8,07.4,0000.0,0001.02,0002.16,0000.79
2024-02-23 21:24:00,SystemResetWarning,0830.7,5.00,000.00,022.1,021.5,000.0,030.1,023.8,07.3,0000.0,0001.02,0002.15,0000.80
2024-02-23 21:25:00,SystemResetWarning,0830.7,5.00,000.00,022.1,021.5,000.0,030.2,023.8,07.0,0000.0,0001.02,0002.15,0000.80
2024-02-23 21:26:00,SystemResetWarning,0830.7,5.00,000.00,022.1,021.6,000.0,030.2,023.8,06.9,0000.0,0001.02,0002.15,0000.80
2024-02-23 21:27:00,SystemResetWarning,0830.7,5.01,000.00,022.1,021.6,000.0,030.2,023.8,07.1,0000.0,0001.02,0002.14,0000.80
2024-02-23 21:28:00,SystemResetWarning,0830.7,5.01,000.00,022.1,021.6,000.0,030.2,023.8,07.1,0000.0,0001.02,0002.14,0000.81
2024-02-23 21:29:00,SystemResetWarning,0830.7,5.01,000.00,022.1,021.6,000.0,030.2,023.8,06.8,0000.0,0000.99,0001.78,0000.81
2024-02-23 21:30:00,SystemResetWarning,0830.7,5.00,000.00,022.2,021.6,000.0,030.2,023.9,07.0,0000.0,0000.90,0001.11,0000.80
2024-02-23 21:31:00,SystemResetWarning,0830.7,5.00,000.00,022.2,021.6,000.0,030.2,023.9,06.8,0000.0,0000.90,0001.11,0000.80
2024-02-23 21:32:00,SystemResetWarning,0830.7,4.99,000.00,022.2,021.6,000.0,030.3,023.9,06.7,0000.0,0000.89,0001.10,0000.79
2024-02-23 21:33:00,SystemResetWarning,0830.7,5.00,000.00,022.2,021.6,000.0,030.3,023.9,06.9,0000.0,0000.91,0001.14,0000.80
2024-02-23 21:34:00,SystemResetWarning,0830.7,5.01,000.00,022.2,021.6,000.0,030.3,023.9,07.0,0000.0,0000.87,0001.07,0000.79
2024-02-23 21:35:00,SystemResetWarning,0830.7,5.00,000.00,022.2,021.6,000.0,030.3,023.9,07.0,0000.0,0000.85,0001.05,0000.78
2024-02-23 21:36:00,SystemResetWarning,0830.7,5.01,000.00,022.2,021.6,000.0,030.3,023.9,06.9,0000.0,0000.86,0001.06,0000.77
2024-02-23 21:37:00,SystemResetWarning,0830.6,5.00,000.00,022.2,021.6,000.0,030.3,023.9,07.0,0000.0,0000.83,0001.00,0000.77
2024-02-23 21:38:00,SystemResetWarning,0830.6,5.00,000.00,022.2,021.6,000.0,030.3,023.9,07.0,0000.0,0000.83,0001.00,0000.77
2024-02-23 21:39:00,SystemResetWarning,0830.7,4.99,000.00,022.3,021.6,000.0,030.3,023.9,06.9,0000.0,0000.82,0000.99,0000.76
2024-02-23 21:40:00,SystemResetWarning,0830.6,4.99,000.00,022.3,021.6,000.0,030.4,023.9,07.3,0000.0,0000.81,0000.98,0000.75
2024-02-23 21:41:00,SystemResetWarning,0830.7,5.00,000.00,022.3,021.6,000.0,030.4,023.9,07.3,0000.0,0000.80,0001.41,0000.75
2024-02-23 21:42:00,SystemResetWarning,0830.7,5.00,000.00,022.3,021.6,000.0,030.4,023.9,07.7,0000.0,0000.80,0001.98,0000.75
2024-02-23 21:43:00,SystemResetWarning,0830.7,5.01,000.00,022.3,021.7,000.0,030.4,024.0,07.4,0000.0,0000.81,0001.99,0000.74
2024-02-23 21:44:00,SystemResetWarning,0830.7,5.01,000.00,022.3,021.7,000.0,030.4,024.0,06.9,0000.0,0000.80,0001.96,0000.74
2024-02-23 21:45:00,SystemResetWarning,0830.7,5.00,000.00,022.3,021.7,000.0,030.4,024.0,07.0,0000.0,0000.80,0003.08,0000.75
2024-02-23 21:46:00,SystemResetWarning,0830.7,5.00,000.00,022.3,021.7,000.0,030.4,024.0,07.2,0000.0,0000.82,0003.21,0000.75
2024-02-23 21:47:00,SystemResetWarning,0830.7,4.99,000.00,022.3,021.7,000.0,030.4,024.0,07.3,0000.0,0000.81,0003.26,0000.75
2024-02-23 21:48:00,SystemResetWarning,0830.7,5.00,000.00,022.3,021.7,000.0,030.4,024.0,07.0,0000.0,0000.81,0003.27,0000.76
2024-02-23 21:49:00,SystemResetWarning,0830.7,5.00,000.00,022.4,021.7,000.0,030.5,024.1,06.9,0000.0,0000.82,0003.32,0000.76
2024-02-23 21:50:00,SystemResetWarning,0830.7,4.99,000.00,022.4,021.8,000.0,030.5,024.1,06.9,0000.0,0000.84,0003.36,0000.76
2024-02-23 21:51:00,SystemResetWarning,0830.7,5.01,000.00,022.4,021.8,000.0,030.5,024.1,06.8,0000.0,0000.85,0004.81,0000.76
2024-02-23 21:52:00,SystemResetWarning,0830.7,5.01,000.00,022.4,021.8,000.0,030.5,024.1,06.9,0000.0,0000.85,0005.01,0000.76
2024-02-23 21:53:00,SystemResetWarning,0830.7,4.99,000.00,022.4,021.8,000.0,030.5,024.1,06.7,0000.0,0000.86,0004.38,0000.76
2024-02-23 21:54:00,SystemResetWarning,0830.7,4.99,000.00,022.4,021.8,000.0,030.5,024.1,07.0,0000.0,0000.85,0004.02,0000.76
2024-02-23 21:55:00,SystemResetWarning,0830.7,4.99,000.00,022.4,021.8,000.0,030.5,024.1,07.2,0000.0,0000.87,0004.07,0000.76
2024-02-23 21:56:00,SystemResetWarning,0830.7,5.00,000.00,022.5,021.9,000.0,030.5,024.1,07.1,0000.0,0000.88,0003.25,0000.76
2024-02-23 21:57:00,SystemResetWarning,0830.7,5.00,000.00,022.5,021.9,000.0,030.5,024.1,07.0,0000.0,0000.88,0002.91,0000.75
2024-02-23 21:58:00,SystemResetWarning,0830.8,5.01,000.00,022.5,021.9,000.0,030.6,024.1,06.8,0000.0,0000.89,0002.86,0000.75
2024-02-23 21:59:00,SystemResetWarning,0830.8,5.00,000.00,022.5,021.9,000.0,030.6,024.1,07.0,0000.0,0000.89,0002.87,0000.75
